Regional Weather Roundup
Issued by NWS

Home | Current Version | Previous Version | Graphics & Text | Print | Product List | Glossary On
Versions: 1 2 3 4 5 6 7 8 9 10 11 12 13 14 15 16 17 18 19 20 21 22 23 24 25 26 27 28 29 30 31 32 33 34 35 36 37 38 39 40 41 42 43 44 45 46 47 48 49 50
000
ASUS45 KPSR 300010
RWRAZ

ARIZONA REGIONAL HOURLY WEATHER ROUNDUP
NATIONAL WEATHER SERVICE PHOENIX AZ
500 PM MST MON SEP 29 2014

NOTE: FAIR INDICATES FEW OR NO CLOUDS BELOW 12,000 FEET WITH NO
SIGNIFICANT WEATHER AND/OR OBSTRUCTIONS TO VISIBILITY.

AZZ001>003-036-300100-
NORTHWEST ARIZONA

CITY           SKY/WX    TMP DP  RH WIND       PRES   REMARKS
BULLHEAD CITY  SUNNY     88  36  15 W3        29.83S
KINGMAN        NOT AVBL
$$

AZZ004>008-015-016-018-300100-
NORTH CENTRAL ARIZONA

CITY           SKY/WX    TMP DP  RH WIND       PRES   REMARKS
GRAND CANYON   MOSUNNY   60  34  37 VRB6      30.11R
6HR MIN TEMP:  55; 6HR MAX TEMP:  62;

PRESCOTT       SUNNY     70  29  21 W8        30.02S
6HR MIN TEMP:  65; 6HR MAX TEMP:  72;

FLAGSTAFF      SUNNY     59  30  33 SW12      30.12R
6HR MIN TEMP:  56; 6HR MAX TEMP:  61;

PAYSON         SUNNY     70  34  26 CALM      30.05R
$$

AZZ009>014-017-300100-
NORTHEAST ARIZONA

CITY           SKY/WX    TMP DP  RH WIND       PRES   REMARKS
WINSLOW        SUNNY     72  28  19 W12       30.00S
6HR MIN TEMP:  69; 6HR MAX TEMP:  75;

SAINT JOHNS    SUNNY     70  26  19 W18       30.02S
6HR MIN TEMP:  67; 6HR MAX TEMP:  73;

WINDOW ROCK    SUNNY     63  28  26 SW15      30.09R
6HR MIN TEMP:  61; 6HR MAX TEMP:  64;

SHOW LOW       SUNNY     64  25  22 W12       30.10S
$$

AZZ023-300100-
GREATER PHOENIX AREA

CITY           SKY/WX    TMP DP  RH WIND       PRES   REMARKS
PHOENIX        SUNNY     87  41  19 CALM      29.80F
6HR MIN TEMP:  81; 6HR MAX TEMP:  89;

BUCKEYE          N/A     84  41  21 SE5       29.83S
GLENDALE       SUNNY     88  37  16 VRB3      29.83S
LUKE AFB       SUNNY     86  40  19 SW6       29.81S
6HR MIN TEMP:  79; 6HR MAX TEMP:  87;

DEER VALLEY    SUNNY     86  31  13 CALM      29.83S
6HR MIN TEMP:  79; 6HR MAX TEMP:  86;

SCOTTSDALE     SUNNY     85  39  19 SW3       29.84S
6HR MIN TEMP:  80; 6HR MAX TEMP:  86;

MESA-FALCON    SUNNY     86  37  17 W9        29.82
MESA-GATEWAY   SUNNY     82  45  26 W5        29.85S
CHANDLER       SUNNY     84  45  24 SW9       29.83S
$$

AZZ027-028-300100-
SOUTHWEST MARICOPA COUNTY AND PINAL COUNTY

CITY           SKY/WX    TMP DP  RH WIND       PRES   REMARKS
CASA GRANDE    SUNNY     84  41  21 N3        29.84S
6HR MIN TEMP:  79; 6HR MAX TEMP:  86;

GILA BEND      CLEAR     88  34  14 E1        29.83F
$$

AZZ503-504-507>509-300100-
SOUTHEAST ARIZONA

CITY           SKY/WX    TMP DP  RH WIND       PRES   REMARKS
TUCSON         SUNNY     88  38  17 NW5       29.88R
6HR MIN TEMP:  82; 6HR MAX TEMP:  90;

DAVIS-MONTHAN  SUNNY     85  41  20 NW10      29.87R
6HR MIN TEMP:  81; 6HR MAX TEMP:  88;

RYAN FIELD       N/A     90  37  15 W14       29.87S
NOGALES        MOSUNNY   80  55  42 SW15      29.96S
6HR MIN TEMP:  79; 6HR MAX TEMP:  84;

SIERRA VISTA   MOSUNNY   79  54  41 W12       30.00S
DOUGLAS        MOSUNNY   83  51  33 W16       29.95S
6HR MIN TEMP:  79; 6HR MAX TEMP:  85;

SAFFORD        SUNNY     86  40  19 NW13      29.85F
6HR MIN TEMP:  82; 6HR MAX TEMP:  88;

$$

AZZ020-021-025-026-031-300100-
SOUTHWEST ARIZONA

CITY           SKY/WX    TMP DP  RH WIND       PRES   REMARKS
YUMA           SUNNY     91  33  12 N5        29.78S
6HR MIN TEMP:  85; 6HR MAX TEMP:  93;

$$

CAZ031-033-041-043-047-048-061-300100-
SOUTHERN CALIFORNIA

CITY           SKY/WX    TMP DP  RH WIND       PRES   REMARKS
DOWNTOWN L.A.  SUNNY     74  57  55 W6        29.85S
6HR MIN TEMP:  74; 6HR MAX TEMP:  78;

L.A. AIRPORT   SUNNY     71  58  63 W20       29.86F
6HR MIN TEMP:  70; 6HR MAX TEMP:  73;

SAN DIEGO      SUNNY     73  61  65 NW12      29.86F
6HR MIN TEMP:  73; 6HR MAX TEMP:  75;

BURBANK        SUNNY     79  51  37 S8        29.85S
6HR MIN TEMP:  71; 6HR MAX TEMP:  81;

ONTARIO        SUNNY     83  46  27 SW8       29.85S
6HR MIN TEMP:  72; 6HR MAX TEMP:  84;

RIVERSIDE      SUNNY     82  52  35 W8        29.85S
6HR MIN TEMP:  71; 6HR MAX TEMP:  84;

PALM SPRINGS   MOSUNNY   90  36  14 CALM      29.81S
6HR MIN TEMP:  83; 6HR MAX TEMP:  92;

EL CENTRO NAS  SUNNY     90  40  17 VRB5      29.78S
6HR MIN TEMP:  85; 6HR MAX TEMP:  91;

IMPERIAL       SUNNY     88  45  22 NW5       29.77F
6HR MIN TEMP:  83; 6HR MAX TEMP:  90;

BLYTHE         SUNNY     88  42  20 E6        29.80S
6HR MIN TEMP:  83; 6HR MAX TEMP:  90;

NEEDLES        SUNNY     89  32  13 VRB3      29.83S
6HR MIN TEMP:  81; 6HR MAX TEMP:  90;

$$

NVZ020-UTZ003-300100-
SOUTHERN NEVADA-UTAH

CITY           SKY/WX    TMP DP  RH WIND       PRES   REMARKS
LAS VEGAS      MOSUNNY   83  34  17 VRB5      29.85F
6HR MIN TEMP:  73; 6HR MAX TEMP:  83;

SALT LAKE CITY PTSUNNY   59  43  55 S7        29.97S
6HR MIN TEMP:  59; 6HR MAX TEMP:  65;

$$

NMZ009-TXZ055-300100-
NEW MEXICO-WEST TEXAS

CITY           SKY/WX    TMP DP  RH WIND       PRES   REMARKS
ALBUQUERQUE    PTCLDY    76  38  25 W20G29    29.95R
6HR MIN TEMP:  63; 6HR MAX TEMP:  77; 6HR PCP:  0.01;

EL PASO        MOSUNNY   88  50  27 SW8       29.89S
6HR MIN TEMP:  80; 6HR MAX TEMP:  90;

$$


........................KEY........................
SKY/WX - SKY CONDITION/WEATHER
TMP    - TEMPERATURE IN FAHRENHEIT
DP     - DEW POINT IN FAHRENHEIT
RH     - RELATIVE HUMIDITY IN PERCENT
WIND   - DIRECTION AND SPEED IN MILES PER HOUR (MPH)
VRB    - VARIABLE WIND DIRECTION
PRES   - MEAN SEA LEVEL PRESSURE IN INCHES OF MERCURY
         F - FALLING PRESSURE   R - RISING PRESSURE
         S - STEADY PRESSURE
VSB    - VISIBILITY IN MILES
HX     - HEAT INDEX IN FAHRENHEIT
WCI    - WIND CHILL INDEX IN FAHRENHEIT
TC     - TEMPERATURE IN CELSIUS WHICH IS ALSO KNOWN AS
         TEMPERATURE IN CENTIGRADE
AFB    - AIR FORCE BASE
         LUKE AFB IS LUKE AIR FORCE BASE
         DAVIS-MONTHAN IS DAVIS-MONTHAN AIR FORCE BASE
NAS    - NAVAL AIR STATION
         EL CENTRO NAS IS EL CENTRO NAVAL AIR STATION
N/A    - NOT AVAILABLE


USA.gov is the U.S. government's official web portal to all federal, state and local government web resources and services.